Location: Harwich
(41.7160°N, 69.9939°W)
Time: 02:13:51
(UTC+01:00)

Hubble Space Telescope - Pass Details

Date: 10 December 2022
Orbit: 529 x 532 km, 28.5° (Epoch: 31 January)

Event Time Altitude Azimuth Distance (km) Brightness Sun altitude
Exits shadow 12:03:39 -1° 239° (WSW) 2,718 4.0 -9.6°
Rises 12:03:51 0° 238° (WSW) 2,653 4.0 -9.6°
Reaches altitude 10° 12:07:15 10° 208° (SSW) 1,762 3.4 -9.0°
Maximum altitude 12:09:00 12° 182° (S) 1,608 3.5 -8.7°
Drops below altitude 10° 12:10:45 10° 157° (SSE) 1,761 4.1 -8.4°
Sets 12:14:09 0° 127° (SE) 2,648 6.2 -7.8°
